This is the latest recevied weather packets stored in our database for station/object K5FEP. If no packets are shown the sender has not sent any weather packets the latest 10 day(s).
| Time | Temp. | Humidity | Pressure | Rain* | Wind** | Luminosity | Snow |
|---|---|---|---|---|---|---|---|
| 1778016020 | 27.22° C | 32% | 1011.8 hPa | 0 mm | - | 427 W/m² | - |
| 1778015718 | 26.67° C | 34% | 1011.8 hPa | 0 mm | - | 456 W/m² | - |
| 1778015414 | 26.67° C | 34% | 1012 hPa | 0 mm | - | 281 W/m² | - |
| 1778015111 | 26.67° C | 31% | 1012.2 hPa | 0 mm | - | 224 W/m² | - |
| 1778014808 | 27.22° C | 31% | 1012 hPa | 0 mm | - | 213 W/m² | - |
| 1778014506 | 27.78° C | 29% | 1011.7 hPa | 0 mm | - | 332 W/m² | - |
| 1778014203 | 27.78° C | 32% | 1011.9 hPa | 0 mm | - | 314 W/m² | - |
| 1778013901 | 27.78° C | 32% | 1012.3 hPa | 0 mm | - | 571 W/m² | - |
| 1778013597 | 27.78° C | 30% | 1011.8 hPa | 0 mm | - | 569 W/m² | - |
| 1778013294 | 28.33° C | 28% | 1012 hPa | 0 mm | - | 594 W/m² | - |
| 1778012990 | 28.33° C | 29% | 1012.2 hPa | 0 mm | - | 613 W/m² | - |
| 1778012687 | 28.33° C | 31% | 1012 hPa | 0 mm | - | 632 W/m² | - |
| 1778012383 | 28.33° C | 31% | 1012 hPa | 0 mm | - | 650 W/m² | - |
| 1778012080 | 28.33° C | 30% | 1012.2 hPa | 0 mm | - | 669 W/m² | - |
| 1778011778 | 28.33° C | 31% | 1012.2 hPa | 0 mm | - | 696 W/m² | - |
| 1778011475 | 27.78° C | 28% | 1012.3 hPa | 0 mm | - | 729 W/m² | - |
| 1778011171 | 27.78° C | 29% | 1012.4 hPa | 0 mm | - | 773 W/m² | - |
| 1778010868 | 27.78° C | 30% | 1012.3 hPa | 0 mm | - | 810 W/m² | - |
| 1778010566 | 27.22° C | 30% | 1012.3 hPa | 0 mm | - | 762 W/m² | - |
| 1778010263 | 27.78° C | 29% | 1012.4 hPa | 0 mm | - | 305 W/m² | - |
| 1778009963 | 27.78° C | 31% | 1012.4 hPa | 0 mm | - | 695 W/m² | - |
| 1778009661 | 28.33° C | 29% | 1012.4 hPa | 0 mm | - | 499 W/m² | - |
| 1778009358 | 28.33° C | 31% | 1012.6 hPa | 0 mm | - | 845 W/m² | - |
| 1778009056 | 27.78° C | 32% | 1012.7 hPa | 0 mm | - | 916 W/m² | - |
| 1778008753 | 27.78° C | 31% | 1012.8 hPa | 0 mm | - | 764 W/m² | - |
* Rain latest hour (hover to see other rain measurements)
** Current wind speed in m/s (hover to see current wind gust speed)